sat.trackr.live / text

‹ back to catalog

STARLINK-11663 [DTC]

NORAD 63668 · 2025-085E

PAYLOAD ACTIVE UNKNOWN

§ Identity

Operator
Country
US
Launch date
2025-04-28
Launch site
AFETR
Launch vehicle
Mass (kg)
RCS (m²)

Purposes: comms

External: N2YO · Heavens-Above · Gunter

§ Orbital elements

Epoch: 2026-05-25T02:05:33.016416Z

Period
91.66 min
Inclination
43.0009°
Eccentricity
0.0001707
Mean motion
15.70977536 rev/d
Perigee alt
355.0 km
Apogee alt
357.3 km
Semi-major
6,734.2 km
B*
1.8957e-3
RAAN
178.2346°
Arg perigee
234.4965°
Mean anomaly
125.5743°
Rev number
6,226

§ Raw data

STARLINK-11663 [DTC]1 63668U 25085E   26145.08718769  .00251764  00000+0  18957-2 0  99992 63668  43.0009 178.2346 0001707 234.4965 125.5743 15.70977536 62269

JSON: /api/v1/satellites/63668 · /tle

For live sub-satellite position, see the globe view (requires WebGL).

§ Visibility from observer

Set your observer location to see the next 7 days of passes ≥ 10°. The values pass through the URL so the page stays shareable.

No JS? Fill the form by hand. The geolocation button needs JavaScript.